パンスターズ彗星

C/2017 K5 ( PanSTARRS )

English version
Home page
Updated on November 23, 2017

---------------------------------------------------------------------

・ プロフィール

発見日 2017年5月27日
発見光度 22.0等
発見者 Pan-STARRS 1 telescope (Haleakala)

・ 写真集

・ 軌道要素

Epoch 2020 Mar. 12.0 TT = JDT 2458920.5
T 2020 Mar. 24.29588 TT                                 MPCW
q   7.6772665            (2000.0)            P               Q
z  -0.0008520      Peri.  171.85280     +0.19350277     +0.16053671
 +/-0.0000326      Node   102.37449     -0.94673176     +0.28937789
e   1.0065413      Incl.   82.26327     -0.25740174     -0.94365693
From 23 observations 2017 May 27-Oct. 14, mean residual 0".3.

・ 光度変化

        m1 = 6.0 + 5 logΔ + 10.0 log r

---------------------------------------------------------------------

軌道要素はM.P.E.C. 2017-V13に掲載されたものです。
光度グラフはComet for Windowsで作成したものです。

---------------------------------------------------------------------

Copyright(C) Seiichi Yoshida (comet@aerith.net). All rights reserved.